Tracking 19638 objects as of 21-Apr-2019
HD Live streaming from Space Station
objects crossing your sky now

ATLAS CENTAUR R/B

Track ATLAS CENTAUR R/B now!


NORAD ID: 6779
Int'l Code: 1971-116B
Perigee: 728.0 km
Apogee: 36,533.6 km
Inclination: 27.8 °
Period: 655.7 minutes
Semi major axis: 25001 km
RCS: 17.4728 m2 (large)
Launch date: December 20, 1971
Source: United States (US)
Launch site: AIR FORCE EASTERN TEST RANGE (AFETR)

Note: This is a ROCKET BODY
aabbcc
Your satellite tracking list
Your tracking list is empty




NASA's NSSDC Master Catalog

Two Line Element Set (TLE):
1  6779U 71116B   19110.60593882 +.00000043 +00000-0 +41875-2 0  9992
2  6779 027.8401 140.1349 7160600 219.9319 058.4317 02.19606853358036
Source of the keplerian elements: AFSPC